IQ1GE Weather Reports


Display with metric or nautical units.
time (UTC)temp
F
wind
direction
speed
MPH
gust
MPH
rain 1hr
in
rain 24hr
in
rain mn
in
humidity
%
barometer
mb
20260901203427 80 91 0.0 0.0 0.00 0.00 0.00 81 1019.9
20260901202927 80 48 0.0 0.0 0.00 0.00 0.00 81 1019.9
20260901202430 80 47 0.0 0.0 0.00 0.00 0.00 81 1019.9
20260901201933 80 188 0.0 0.0 0.00 0.00 0.00 81 1019.8
20260901201427 80 208 0.0 0.0 0.00 0.00 0.00 81 1019.8
20260901200930 80 208 0.0 0.0 0.00 0.00 0.00 81 1019.8
20260901200433 80 208 0.0 0.0 0.00 0.00 0.00 81 1019.7
20260901195936 80 208 0.0 0.0 0.00 0.00 0.00 81 1019.7
20260901195433 80 208 0.0 0.0 0.00 0.00 0.00 82 1019.6
20260901194927 80 208 0.0 0.0 0.00 0.00 0.00 81 1019.6
20260901194427 80 208 0.0 0.0 0.00 0.00 0.00 81 1019.6
20260901193936 80 208 0.0 0.0 0.00 0.00 0.00 81 1019.4
20260901193427 80 208 0.0 0.0 0.00 0.00 0.00 81 1019.4
20260901192930 80 208 0.0 0.0 0.00 0.00 0.00 81 1019.4
20260901192433 80 208 0.0 0.0 0.00 0.00 0.00 81 1019.3
20260901191930 80 208 0.0 0.0 0.00 0.00 0.00 81 1019.2
20260901191427 80 208 0.0 0.0 0.00 0.00 0.00 80 1019.2
20260901190927 80 208 0.0 0.0 0.00 0.00 0.00 80 1019.1
20260901190427 80 208 0.0 0.0 0.00 0.00 0.00 80 1019.0
20260901185930 80 208 0.0 0.0 0.00 0.00 0.00 79 1019.0
20260901185430 80 208 0.0 0.0 0.00 0.00 0.00 78 1018.9
20260901184927 81 208 0.0 0.0 0.00 0.00 0.00 78 1018.8
20260901184427 81 208 0.0 0.0 0.00 0.00 0.00 78 1018.7
20260901183927 81 208 0.0 0.0 0.00 0.00 0.00 78 1018.7
20260901183430 81 208 0.0 0.0 0.00 0.00 0.00 79 1018.7
20260901182933 81 208 0.0 0.0 0.00 0.00 0.00 78 1018.7
20260901182427 81 208 0.0 0.0 0.00 0.00 0.00 78 1018.7
20260901181927 81 208 0.0 0.0 0.00 0.00 0.00 78 1018.6
20260901181430 81 209 0.0 0.0 0.00 0.00 0.00 79 1018.6
20260901180927 81 203 0.0 0.0 0.00 0.00 0.00 79 1018.6
20260901180430 82 203 0.0 0.0 0.00 0.00 0.00 79 1018.6
20260901175933 82 201 0.0 0.0 0.00 0.00 0.00 79 1018.6
20260901175433 82 201 0.0 0.0 0.00 0.00 0.00 79 1018.5
20260901174927 82 201 0.0 0.0 0.00 0.00 0.00 78 1018.5
20260901174427 82 199 0.0 0.0 0.00 0.00 0.00 77 1018.5
20260901173930 83 213 0.0 0.0 0.00 0.00 0.00 77 1018.4
20260901173427 83 212 0.0 0.0 0.00 0.00 0.00 76 1018.5
20260901172930 83 198 0.0 0.0 0.00 0.00 0.00 76 1018.4
20260901172433 83 222 0.0 0.0 0.00 0.00 0.00 75 1018.5
20260901171927 83 205 0.0 0.0 0.00 0.00 0.00 74 1018.5
20260901171427 83 219 0.0 0.0 0.00 0.00 0.00 74 1018.4
20260901170927 84 202 0.0 0.0 0.00 0.00 0.00 73 1018.4
20260901170430 84 175 0.0 0.0 0.00 0.00 0.00 71 1018.5
20260901165933 84 193 0.0 0.0 0.00 0.00 0.00 71 1018.4
20260901165427 84 206 0.0 0.0 0.00 0.00 0.00 69 1018.5
20260901164927 84 235 0.0 0.0 0.00 0.00 0.00 68 1018.5
20260901164430 84 238 0.0 0.0 0.00 0.00 0.00 69 1018.4
20260901163930 84 199 0.0 0.0 0.00 0.00 0.00 69 1018.4
20260901163433 84 235 0.0 0.0 0.00 0.00 0.00 69 1018.3
20260901162927 84 219 0.0 0.0 0.00 0.00 0.00 70 1018.3
20260901162427 84 204 0.0 0.0 0.00 0.00 0.00 71 1018.3
20260901161927 85 208 0.0 0.0 0.00 0.00 0.00 70 1018.3
20260901161430 85 265 0.0 0.0 0.00 0.00 0.00 70 1018.4
20260901160933 85 206 0.0 0.0 0.00 0.00 0.00 69 1018.3
20260901160427 85 210 0.0 0.0 0.00 0.00 0.00 69 1018.4
20260901155927 85 210 0.0 0.0 0.00 0.00 0.00 68 1018.3
20260901155430 85 212 0.0 0.0 0.00 0.00 0.00 67 1018.4
20260901154927 85 200 0.0 0.0 0.00 0.00 0.00 68 1018.4
20260901154430 85 229 0.0 0.0 0.00 0.00 0.00 68 1018.5
20260901153933 85 238 0.0 0.0 0.00 0.00 0.00 67 1018.6
20260901153427 85 195 0.0 0.0 0.00 0.00 0.00 68 1018.6
20260901152930 85 239 0.0 0.0 0.00 0.00 0.00 67 1018.6
20260901152427 85 198 0.0 0.0 0.00 0.00 0.00 65 1018.6
20260901151930 85 263 0.0 0.0 0.00 0.00 0.00 67 1018.6
20260901151433 85 212 0.0 0.0 0.00 0.00 0.00 64 1018.7
20260901150927 84 224 0.0 0.0 0.00 0.00 0.00 66 1018.7
20260901150430 85 188 0.0 0.0 0.00 0.00 0.00 69 1018.7
20260901145930 84 186 0.0 0.0 0.00 0.00 0.00 69 1018.7
20260901145433 84 185 0.0 0.0 0.00 0.00 0.00 69 1018.8
20260901144927 84 241 0.0 0.0 0.00 0.00 0.00 71 1018.8
20260901144427 84 238 0.0 0.0 0.00 0.00 0.00 73 1018.8
20260901143930 84 208 0.0 0.0 0.00 0.00 0.00 73 1018.8
20260901143433 84 172 0.0 0.0 0.00 0.00 0.00 73 1018.8
20260901142927 84 186 0.0 0.0 0.00 0.00 0.00 73 1019.0
20260901142427 84 233 0.0 0.0 0.00 0.00 0.00 72 1018.9
20260901141930 84 225 0.0 0.0 0.00 0.00 0.00 73 1018.9
20260901141427 84 228 0.0 0.0 0.00 0.00 0.00 73 1019.0
20260901140933 84 190 0.0 0.0 0.00 0.00 0.00 74 1018.9
20260901140427 84 175 0.0 0.0 0.00 0.00 0.00 74 1019.0
20260901135930 84 170 0.0 0.0 0.00 0.00 0.00 72 1019.0
20260901135427 84 216 0.0 0.0 0.00 0.00 0.00 73 1019.0
20260901134930 84 162 0.0 0.0 0.00 0.00 0.00 73 1019.1
20260901134433 84 179 0.0 0.0 0.00 0.00 0.00 74 1019.0
20260901133927 84 191 0.0 0.0 0.00 0.00 0.00 73 1019.0
20260901133427 84 224 0.0 0.0 0.00 0.00 0.00 73 1019.0
20260901132930 84 199 0.0 0.0 0.00 0.00 0.00 72 1019.1
20260901132433 84 183 0.0 0.0 0.00 0.00 0.00 72 1019.1
20260901131927 84 210 0.0 0.0 0.00 0.00 0.00 72 1019.1
20260901131427 84 195 0.0 0.0 0.00 0.00 0.00 71 1019.0
20260901130930 85 201 0.0 0.0 0.00 0.00 0.00 71 1019.0
20260901130427 85 241 0.0 0.0 0.00 0.00 0.00 71 1019.0
20260901125930 85 173 0.0 0.0 0.00 0.00 0.00 71 1019.0
20260901125433 85 233 0.0 0.0 0.00 0.00 0.00 70 1019.1
20260901124927 85 215 0.0 0.0 0.00 0.00 0.00 70 1019.0
20260901124427 85 240 0.0 0.0 0.00 0.00 0.00 71 1019.0
20260901123930 84 250 0.0 0.0 0.00 0.00 0.00 70 1019.0
20260901123427 85 177 0.0 0.0 0.00 0.00 0.00 68 1019.0
20260901122933 85 201 0.0 0.0 0.00 0.00 0.00 70 1019.0
20260901122427 84 218 0.0 0.0 0.00 0.00 0.00 68 1019.0
20260901121927 85 226 0.0 0.0 0.00 0.00 0.00 67 1019.0
20260901121430 85 211 0.0 0.0 0.00 0.00 0.00 68 1018.9
20260901120927 85 137 0.0 0.0 0.00 0.00 0.00 68 1018.9
20260901120430 86 359 0.0 0.0 0.00 0.00 0.00 67 1018.9
20260901115933 86 189 0.0 0.0 0.00 0.00 0.00 66 1018.9
20260901115427 86 170 0.0 0.0 0.00 0.00 0.00 68 1018.9
20260901114927 85 122 0.0 0.0 0.00 0.00 0.00 68 1019.0
20260901114430 85 245 0.0 0.0 0.00 0.00 0.00 70 1019.0
20260901113933 85 151 0.0 0.0 0.00 0.00 0.00 70 1019.0
20260901113427 85 213 0.0 0.0 0.00 0.00 0.00 70 1018.8
20260901112927 85 192 0.0 0.0 0.00 0.00 0.00 70 1018.8
20260901112430 85 162 0.0 0.0 0.00 0.00 0.00 70 1018.9
20260901111927 85 243 0.0 0.0 0.00 0.00 0.00 69 1018.9
20260901111430 85 267 0.0 0.0 0.00 0.00 0.00 70 1018.9
20260901110933 85 178 0.0 0.0 0.00 0.00 0.00 70 1019.0
20260901110427 85 271 0.0 0.0 0.00 0.00 0.00 69 1019.0
20260901105927 85 162 0.0 0.0 0.00 0.00 0.00 68 1019.1
20260901105430 85 218 0.0 0.0 0.00 0.00 0.00 67 1019.0
20260901104927 85 200 0.0 0.0 0.00 0.00 0.00 69 1019.1
20260901104430 85 199 0.0 0.0 0.00 0.00 0.00 68 1019.0
20260901103927 85 194 0.0 0.0 0.00 0.00 0.00 68 1019.0
20260901103430 85 275 0.0 0.0 0.00 0.00 0.00 69 1019.0
20260901102933 85 190 0.0 0.0 0.00 0.00 0.00 68 1019.1
20260901102430 85 217 0.0 0.0 0.00 0.00 0.00 68 1019.0
20260901101927 85 217 0.0 0.0 0.00 0.00 0.00 68 1019.0
20260901101430 85 191 0.0 0.0 0.00 0.00 0.00 68 1019.0
20260901100933 85 242 0.0 0.0 0.00 0.00 0.00 67 1019.0
20260901100428 85 135 0.0 0.0 0.00 0.00 0.00 66 1019.1
20260901095927 85 218 0.0 0.0 0.00 0.00 0.00 66 1019.1
20260901095430 85 189 0.0 0.0 0.00 0.00 0.00 66 1019.2
20260901094927 85 253 0.0 0.0 0.00 0.00 0.00 67 1019.1
20260901094427 85 244 0.0 0.0 0.00 0.00 0.00 68 1019.0
20260901093933 84 235 0.0 0.0 0.00 0.00 0.00 68 1019.1
20260901093427 84 215 0.0 0.0 0.00 0.00 0.00 69 1019.0
20260901092930 84 228 0.0 0.0 0.00 0.00 0.00 69 1019.0
20260901092431 84 198 0.0 0.0 0.00 0.00 0.00 69 1019.0
20260901091934 84 185 0.0 0.0 0.00 0.00 0.00 68 1018.9
20260901091428 85 193 0.0 0.0 0.00 0.00 0.00 67 1018.8
20260901090927 85 194 0.0 0.0 0.00 0.00 0.00 67 1018.7
20260901090427 85 166 0.0 0.0 0.00 0.00 0.00 66 1018.7
20260901085930 85 197 0.0 0.0 0.00 0.00 0.00 65 1018.6
20260901085431 85 214 0.0 0.0 0.00 0.00 0.00 64 1018.7
20260901084937 85 137 0.0 0.0 0.00 0.00 0.00 64 1018.6
20260901084428 85 192 0.0 0.0 0.00 0.00 0.00 64 1018.5
20260901083928 85 235 0.0 0.0 0.00 0.00 0.00 65 1018.4
20260901083428 85 191 0.0 0.0 0.00 0.00 0.00 65 1018.4
20260901082931 85 204 0.0 0.0 0.00 0.00 0.00 65 1018.4
20260901082428 85 195 0.0 0.0 0.00 0.00 0.00 66 1018.5
20260901081931 85 231 0.0 0.0 0.00 0.00 0.00 65 1018.4
20260901081431 85 167 0.0 0.0 0.00 0.00 0.00 66 1018.4
20260901080934 84 166 0.0 0.0 0.00 0.00 0.00 65 1018.4
20260901080437 84 162 0.0 0.0 0.00 0.00 0.00 65 1018.4
20260901075928 84 150 0.0 0.0 0.00 0.00 0.00 65 1018.3
20260901075431 84 139 0.0 0.0 0.00 0.00 0.00 65 1018.3
20260901074928 84 138 0.0 0.0 0.00 0.00 0.00 66 1018.3
20260901074431 84 130 0.0 0.0 0.00 0.00 0.00 66 1018.3
20260901073934 84 129 0.0 0.0 0.00 0.00 0.00 66 1018.3
20260901073428 84 129 0.0 0.0 0.00 0.00 0.00 66 1018.3
20260901072928 83 83 0.0 0.0 0.00 0.00 0.00 68 1018.3
20260901072431 83 83 0.0 0.0 0.00 0.00 0.00 68 1018.3
20260901071934 82 125 0.0 0.0 0.00 0.00 0.00 69 1018.3
20260901071428 82 83 0.0 0.0 0.00 0.00 0.00 69 1018.2
20260901070928 81 85 0.0 0.0 0.00 0.00 0.00 70 1018.2
20260901070431 81 112 0.0 0.0 0.00 0.00 0.00 70 1018.2
20260901065928 81 94 0.0 0.0 0.00 0.00 0.00 71 1018.2
20260901065434 80 112 0.0 0.0 0.00 0.00 0.00 72 1018.1
20260901064928 80 87 0.0 0.0 0.00 0.00 0.00 72 1018.1
20260901064428 80 63 0.0 0.0 0.00 0.00 0.00 72 1018.1
20260901063928 80 89 0.0 0.0 0.00 0.00 0.00 73 1018.1
20260901063431 80 66 0.0 0.0 0.00 0.00 0.00 72 1018.0
20260901062934 80 43 0.0 0.0 0.00 0.00 0.00 73 1017.9
20260901062428 80 103 0.0 0.0 0.00 0.00 0.00 73 1017.9
20260901061931 79 27 0.0 0.0 0.00 0.00 0.00 73 1017.8
20260901061428 79 77 0.0 0.0 0.00 0.00 0.00 74 1017.8
20260901060928 79 62 0.0 0.0 0.00 0.00 0.00 74 1017.7
20260901060428 79 85 0.0 0.0 0.00 0.00 0.00 75 1017.7
20260901055928 78 114 0.0 0.0 0.00 0.00 0.00 76 1017.7
20260901055428 78 70 0.0 0.0 0.00 0.00 0.00 77 1017.7
20260901054934 78 70 0.0 0.0 0.00 0.00 0.00 78 1017.7
20260901054428 78 68 0.0 0.0 0.00 0.00 0.00 79 1017.6
20260901053931 77 82 0.0 0.0 0.00 0.00 0.00 79 1017.6
20260901053434 77 90 0.0 0.0 0.00 0.00 0.00 79 1017.5
20260901052928 77 27 0.0 0.0 0.00 0.00 0.00 78 1017.5
20260901052428 77 75 0.0 0.0 0.00 0.00 0.00 78 1017.5
20260901051931 77 87 0.0 0.0 0.00 0.00 0.00 77 1017.5
20260901051428 77 96 0.0 0.0 0.00 0.00 0.00 77 1017.5
20260901050931 77 104 0.0 0.0 0.00 0.00 0.00 77 1017.4
20260901050434 78 84 0.0 0.0 0.00 0.00 0.00 77 1017.5
20260901045928 78 73 0.0 0.0 0.00 0.00 0.00 77 1017.4
20260901045428 78 84 0.0 0.0 0.00 0.00 0.00 76 1017.5
20260901044931 78 77 0.0 0.0 0.00 0.00 0.00 76 1017.5
20260901044428 78 72 0.0 0.0 0.00 0.00 0.00 76 1017.5
20260901043931 79 96 0.0 0.0 0.00 0.00 0.00 76 1017.4
20260901043434 79 98 0.0 0.0 0.00 0.00 0.00 76 1017.4
20260901042928 79 100 0.0 0.0 0.00 0.00 0.00 76 1017.5
20260901042428 79 96 0.0 0.0 0.00 0.00 0.00 76 1017.5
20260901041931 79 96 0.0 0.0 0.00 0.00 0.00 76 1017.5
20260901041428 79 98 0.0 0.0 0.00 0.00 0.00 76 1017.5
20260901040931 78 97 0.0 0.0 0.00 0.00 0.00 76 1017.5
20260901040434 78 98 0.0 0.0 0.00 0.00 0.00 76 1017.5
20260901035928 78 97 0.0 0.0 0.00 0.00 0.00 76 1017.5
20260901035428 78 102 0.0 0.0 0.00 0.00 0.00 76 1017.5
20260901034931 78 98 0.0 0.0 0.00 0.00 0.00 75 1017.4
20260901034428 78 89 0.0 0.0 0.00 0.00 0.00 75 1017.5
20260901033931 78 93 0.0 0.0 0.00 0.00 0.00 75 1017.5
20260901033434 78 98 0.0 0.0 0.00 0.00 0.00 76 1017.4
20260901032928 78 92 0.0 0.0 0.00 0.00 0.00 76 1017.4
20260901032428 78 92 0.0 0.0 0.00 0.00 0.00 76 1017.3
20260901031931 78 100 0.0 0.0 0.00 0.00 0.00 76 1017.3
20260901031428 78 77 0.0 0.0 0.00 0.00 0.00 76 1017.3
20260901030931 78 63 0.0 0.0 0.00 0.00 0.00 76 1017.3
20260901030434 78 116 0.0 0.0 0.00 0.00 0.00 76 1017.3
20260901025928 78 92 0.0 0.0 0.00 0.00 0.00 76 1017.3
20260901025428 78 93 0.0 0.0 0.00 0.00 0.00 76 1017.3
20260901024928 78 104 0.0 0.0 0.00 0.00 0.00 76 1017.3
20260901024434 78 107 0.0 0.0 0.00 0.00 0.00 76 1017.4
20260901023931 78 29 0.0 0.0 0.00 0.00 0.00 76 1017.3
20260901023434 78 101 0.0 0.0 0.00 0.00 0.00 76 1017.4
20260901022937 77 70 0.0 0.0 0.00 0.00 0.00 76 1017.3
20260901022428 77 64 0.0 0.0 0.00 0.00 0.00 76 1017.3
20260901021928 77 60 0.0 0.0 0.00 0.00 0.00 77 1017.3
20260901021431 77 58 0.0 0.0 0.00 0.00 0.00 77 1017.3
20260901020937 77 66 0.0 0.0 0.00 0.00 0.00 77 1017.3
20260901020426 77 61 0.0 0.0 0.00 0.00 0.00 77 1017.3
20260901015926 77 67 0.0 0.0 0.00 0.00 0.00 77 1017.3
20260901015426 77 359 0.0 0.0 0.00 0.00 0.00 77 1017.3
20260901014929 77 100 0.0 0.0 0.00 0.00 0.00 77 1017.3
20260901014432 77 63 0.0 0.0 0.00 0.00 0.00 78 1017.4
20260901013926 77 79 0.0 0.0 0.00 0.00 0.00 78 1017.4
20260901013429 77 85 0.0 0.0 0.00 0.00 0.00 78 1017.4
20260901012926 77 29 0.0 0.0 0.00 0.00 0.00 78 1017.4
20260901012432 77 66 0.0 0.0 0.00 0.00 0.00 78 1017.4
20260901011926 77 65 0.0 0.0 0.00 0.00 0.00 78 1017.4
20260901011426 77 75 0.0 0.0 0.00 0.00 0.00 79 1017.4
20260901010929 77 81 0.0 0.0 0.00 0.00 0.00 79 1017.4
20260901010429 77 32 0.0 0.0 0.00 0.00 0.00 79 1017.5
20260901005932 77 41 0.0 0.0 0.00 0.00 0.00 79 1017.5
20260901005426 77 68 0.0 0.0 0.00 0.00 0.00 79 1017.5
20260901004926 77 48 0.0 0.0 0.00 0.00 0.00 79 1017.5
20260901004426 77 68 0.0 0.0 0.00 0.00 0.00 79 1017.6
20260901003929 77 66 0.0 0.0 0.00 0.00 0.00 79 1017.6
20260901003432 77 79 0.0 0.0 0.00 0.00 0.00 79 1017.6
20260901002926 77 95 0.0 0.0 0.00 0.00 0.00 79 1017.6
20260901002426 77 95 0.0 0.0 0.00 0.00 0.00 79 1017.7
20260901001929 77 95 0.0 0.0 0.00 0.00 0.00 79 1017.7
20260901001426 78 94 0.0 0.0 0.00 0.00 0.00 79 1017.7
20260901000932 78 86 0.0 0.0 0.00 0.00 0.00 79 1017.7
20260901000428 78 90 0.0 0.0 0.00 0.00 0.00 79 1017.7
20260831235926 78 101 0.0 0.0 0.00 0.00 0.00 79 1017.7
20260831235429 78 100 0.0 0.0 0.00 0.00 0.00 79 1017.7
20260831234926 78 98 0.0 0.0 0.00 0.00 0.00 79 1017.7
20260831234426 78 100 0.0 0.0 0.00 0.00 0.00 79 1017.8
20260831233926 78 100 0.0 0.0 0.00 0.00 0.00 80 1017.8
20260831233426 78 104 0.0 0.0 0.00 0.00 0.00 80 1017.8
20260831232932 78 102 0.0 0.0 0.00 0.00 0.00 80 1017.8
20260831232426 78 105 0.0 0.0 0.00 0.00 0.00 80 1017.8
20260831231926 78 104 0.0 0.0 0.00 0.00 0.00 80 1017.7
20260831231426 78 127 0.0 0.0 0.00 0.00 0.00 81 1017.7
20260831230926 78 127 0.0 0.0 0.00 0.00 0.00 81 1017.7
20260831230426 78 83 0.0 0.0 0.00 0.00 0.00 82 1017.7
20260831225929 78 77 0.0 0.0 0.00 0.00 0.00 82 1017.7
20260831225432 78 79 0.0 0.0 0.00 0.00 0.00 82 1017.7
20260831224926 78 120 0.0 0.0 0.00 0.00 0.00 82 1017.7
20260831224426 78 60 0.0 0.0 0.00 0.00 0.00 81 1017.7
20260831223926 78 112 0.0 0.0 0.00 0.00 0.00 81 1017.7
20260831223429 78 79 0.0 0.0 0.00 0.00 0.00 80 1017.7
20260831222926 78 87 0.0 0.0 0.00 0.00 0.00 80 1017.6
20260831222429 78 68 0.0 0.0 0.00 0.00 0.00 80 1017.7
20260831221926 78 70 0.0 0.0 0.00 0.00 0.00 80 1017.7
20260831221429 79 110 0.0 0.0 0.00 0.00 0.00 80 1017.6
20260831220926 79 68 0.0 0.0 0.00 0.00 0.00 80 1017.6
20260831220429 79 103 0.0 0.0 0.00 0.00 0.00 80 1017.5
20260831215926 79 99 0.0 0.0 0.00 0.00 0.00 80 1017.5
20260831215426 79 106 0.0 0.0 0.00 0.00 0.00 80 1017.5
20260831214929 79 113 0.0 0.0 0.00 0.00 0.00 80 1017.5
20260831214426 79 119 0.0 0.0 0.00 0.00 0.00 80 1017.5
20260831213929 79 125 0.0 0.0 0.00 0.00 0.00 80 1017.5
20260831213426 79 125 0.0 0.0 0.00 0.00 0.00 80 1017.4
20260831212932 79 125 0.0 0.0 0.00 0.00 0.00 80 1017.4
20260831212429 79 128 0.0 0.0 0.00 0.00 0.00 80 1017.4
20260831211926 79 228 0.0 0.0 0.00 0.00 0.00 80 1017.4
20260831211426 79 125 0.0 0.0 0.00 0.00 0.00 80 1017.4
20260831210926 79 125 0.0 0.0 0.00 0.00 0.00 80 1017.4
20260831210426 79 124 0.0 0.0 0.00 0.00 0.00 80 1017.3
20260831205929 80 125 0.0 0.0 0.00 0.00 0.00 79 1017.3
20260831205432 80 312 0.0 0.0 0.00 0.00 0.00 79 1017.3
20260831204926 80 336 0.0 0.0 0.00 0.00 0.00 79 1017.3
20260831204426 80 337 0.0 0.0 0.00 0.00 0.00 79 1017.2
20260831203926 80 242 0.0 0.0 0.00 0.00 0.00 79 1017.2